• In Uzbekistan
  • List of Countries
  • For 7 days
  • Water Temperature
  • Satellite Maps
  • Weather Map
  • Weather Widgets
  • user-avatar
    Login

    Hourly Weather Tagtabazar

    Today, 23 October, Tuesday

    Time Temperature Precipitation Wind Pressure Humidity
    00:00 +18°C° 0 mm 1 mps 719 mmHg 22%
    01:00 +18°C° 0 mm 1 mps 719 mmHg 23%
    02:00 +16°C° 0 mm 1 mps 718 mmHg 24%
    03:00 +15°C° 0 mm 0 mps 718 mmHg 25%
    04:00 +14°C° 0 mm 0 mps 718 mmHg 25%
    05:00 +15°C° 0 mm 0 mps 719 mmHg 25%
    06:00 +15°C° 0 mm 0 mps 719 mmHg 24%
    07:00 +16°C° 0 mm 0 mps 719 mmHg 23%
    08:00 +19°C° 0 mm 0 mps 719 mmHg 20%
    09:00 +21°C° 0 mm 0 mps 719 mmHg 17%
    10:00 +24°C° 0 mm 0 mps 720 mmHg 14%
    11:00 +27°C° 0 mm 1 mps 719 mmHg 13%
    12:00 +28°C° 0 mm 1 mps 719 mmHg 13%
    13:00 +29°C° 0 mm 2 mps 719 mmHg 12%
    14:00 +29°C° 0 mm 2 mps 719 mmHg 12%
    15:00 +29°C° 0 mm 3 mps 718 mmHg 12%
    16:00 +28°C° 0 mm 3 mps 718 mmHg 12%
    17:00 +27°C° 0 mm 3 mps 718 mmHg 13%
    18:00 +25°C° 0 mm 3 mps 718 mmHg 15%
    19:00 +23°C° 0 mm 2 mps 718 mmHg 16%
    20:00 +21°C° 0 mm 2 mps 718 mmHg 17%
    21:00 +20°C° 0 mm 2 mps 718 mmHg 18%
    22:00 +20°C° 0 mm 1 mps 718 mmHg 20%
    23:00 +19°C° 0 mm 1 mps 718 mmHg 21%

    Tomorrow, 24 October, Wednesday

    Time Temperature Precipitation Wind Pressure Humidity
    00:00 +18°C° 0 mm 1 mps 717 mmHg 22%
    01:00 +16°C° 0 mm 0 mps 717 mmHg 24%
    02:00 +15°C° 0 mm 0 mps 717 mmHg 24%
    03:00 +15°C° 0 mm 0 mps 717 mmHg 25%
    04:00 +15°C° 0 mm 0 mps 717 mmHg 25%
    05:00 +15°C° 0 mm 0 mps 717 mmHg 25%
    06:00 +16°C° 0 mm 0 mps 717 mmHg 24%
    07:00 +16°C° 0 mm 0 mps 717 mmHg 24%
    08:00 +19°C° 0 mm 0 mps 718 mmHg 21%
    09:00 +21°C° 0 mm 0 mps 718 mmHg 17%
    10:00 +24°C° 0 mm 0 mps 718 mmHg 14%
    11:00 +25°C° 0 mm 0 mps 718 mmHg 14%
    12:00 +28°C° 0 mm 1 mps 718 mmHg 13%
    13:00 +29°C° 0 mm 1 mps 717 mmHg 13%
    14:00 +29°C° 0 mm 2 mps 717 mmHg 13%
    15:00 +29°C° 0 mm 2 mps 717 mmHg 13%
    16:00 +29°C° 0 mm 2 mps 716 mmHg 13%
    17:00 +27°C° 0 mm 2 mps 717 mmHg 15%
    18:00 +25°C° 0 mm 2 mps 717 mmHg 17%
    19:00 +23°C° 0 mm 2 mps 717 mmHg 19%
    20:00 +22°C° 0 mm 1 mps 717 mmHg 20%
    21:00 +21°C° 0 mm 1 mps 717 mmHg 21%
    22:00 +20°C° 0 mm 1 mps 717 mmHg 23%
    23:00 +20°C° 0 mm 1 mps 716 mmHg 24%

    Day after tomorrow, 25 October, Thursday

    Time Temperature Precipitation Wind Pressure Humidity
    00:00 +19°C° 0 mm 1 mps 716 mmHg 25%
    01:00 +19°C° 0 mm 1 mps 716 mmHg 26%
    02:00 +19°C° 0 mm 1 mps 716 mmHg 26%
    03:00 +18°C° 0 mm 1 mps 716 mmHg 27%
    04:00 +18°C° 0 mm 1 mps 716 mmHg 28%
    05:00 +19°C° 0 mm 1 mps 716 mmHg 28%
    06:00 +19°C° 0 mm 2 mps 716 mmHg 28%
    07:00 +19°C° 0 mm 2 mps 716 mmHg 28%
    08:00 +22°C° 0 mm 3 mps 717 mmHg 24%
    09:00 +26°C° 0 mm 4 mps 717 mmHg 20%
    10:00 +29°C° 0 mm 5 mps 717 mmHg 17%
    11:00 +30°C° 0 mm 5 mps 717 mmHg 16%
    12:00 +33°C° 0 mm 6 mps 716 mmHg 14%
    13:00 +34°C° 0 mm 7 mps 716 mmHg 13%
    14:00 +34°C° 0 mm 7 mps 716 mmHg 13%
    15:00 +33°C° 0 mm 6 mps 715 mmHg 13%
    16:00 +33°C° 0 mm 5 mps 715 mmHg 13%
    17:00 +30°C° 0 mm 5 mps 715 mmHg 15%
    18:00 +29°C° 0 mm 5 mps 716 mmHg 17%
    19:00 +27°C° 0 mm 4 mps 716 mmHg 19%
    20:00 +26°C° 0 mm 4 mps 716 mmHg 19%
    21:00 +26°C° 0 mm 4 mps 716 mmHg 20%
    22:00 +25°C° 0 mm 4 mps 716 mmHg 20%
    23:00 +25°C° 0 mm 4 mps 716 mmHg 21%

    26 October, Friday

    Time Temperature Precipitation Wind Pressure Humidity
    00:00 +23°C° 0 mm 4 mps 716 mmHg 21%
    01:00 +23°C° 0 mm 4 mps 716 mmHg 22%
    02:00 +23°C° 0 mm 4 mps 716 mmHg 22%
    03:00 +23°C° 0 mm 4 mps 716 mmHg 22%
    04:00 +23°C° 0 mm 4 mps 716 mmHg 22%
    05:00 +23°C° 0 mm 4 mps 717 mmHg 22%
    06:00 +23°C° 0 mm 4 mps 717 mmHg 22%
    07:00 +23°C° 0 mm 4 mps 717 mmHg 22%
    08:00 +27°C° 0 mm 6 mps 717 mmHg 19%
    09:00 +32°C° 0 mm 7 mps 718 mmHg 16%
    10:00 +35°C° 0 mm 9 mps 718 mmHg 13%
    11:00 +37°C° 0 mm 9 mps 718 mmHg 12%
    12:00 +37°C° 0 mm 9 mps 717 mmHg 11%
    13:00 +38°C° 0 mm 10 mps 717 mmHg 10%
    14:00 +38°C° 0 mm 9 mps 716 mmHg 11%
    15:00 +37°C° 0 mm 8 mps 716 mmHg 11%
    16:00 +36°C° 0 mm 7 mps 716 mmHg 12%
    17:00 +34°C° 0 mm 6 mps 716 mmHg 14%
    18:00 +32°C° 0 mm 6 mps 716 mmHg 15%
    19:00 +29°C° 0 mm 5 mps 717 mmHg 17%
    20:00 +29°C° 0 mm 5 mps 717 mmHg 18%
    21:00 +29°C° 0 mm 5 mps 717 mmHg 19%
    22:00 +28°C° 0 mm 5 mps 717 mmHg 20%
    23:00 +28°C° 0 mm 5 mps 717 mmHg 20%

    27 October, Saturday

    Time Temperature Precipitation Wind Pressure Humidity
    00:00 +27°C° 0 mm 5 mps 716 mmHg 21%
    01:00 +27°C° 0 mm 5 mps 716 mmHg 21%
    02:00 +27°C° 0 mm 5 mps 716 mmHg 21%
    03:00 +27°C° 0 mm 5 mps 716 mmHg 22%
    04:00 +26°C° 0 mm 5 mps 716 mmHg 22%
    05:00 +26°C° 0 mm 5 mps 717 mmHg 23%
    06:00 +27°C° 0 mm 5 mps 717 mmHg 23%
    07:00 +27°C° 0 mm 5 mps 717 mmHg 23%
    08:00 +29°C° 0 mm 6 mps 718 mmHg 21%
    09:00 +33°C° 0 mm 8 mps 718 mmHg 19%
    10:00 +37°C° 0 mm 9 mps 719 mmHg 17%
    11:00 +36°C° 0 mm 10 mps 719 mmHg 18%
    12:00 +36°C° 0 mm 10 mps 719 mmHg 19%
    13:00 +34°C° 0 mm 11 mps 719 mmHg 21%
    14:00 +32°C° 0 mm 10 mps 719 mmHg 27%
    15:00 +29°C° 0 mm 10 mps 720 mmHg 33%
    16:00 +27°C° 0 mm 9 mps 720 mmHg 39%
    17:00 +26°C° 0 mm 8 mps 722 mmHg 42%
    18:00 +24°C° 0 mm 7 mps 723 mmHg 46%
    19:00 +23°C° 0 mm 6 mps 724 mmHg 49%
    20:00 +22°C° 0 mm 7 mps 725 mmHg 53%
    21:00 +21°C° 0 mm 8 mps 725 mmHg 56%
    22:00 +19°C° 0 mm 9 mps 726 mmHg 60%
    23:00 +18°C° 0.2 mm 8 mps 726 mmHg 62%

    28 October, Sunday

    Time Temperature Precipitation Wind Pressure Humidity
    00:00 +18°C° 0.2 mm 8 mps 726 mmHg 64%
    01:00 +17°C° 0.2 mm 7 mps 726 mmHg 65%
    02:00 +16°C° 0.3 mm 8 mps 726 mmHg 67%
    03:00 +15°C° 0.3 mm 8 mps 726 mmHg 69%
    04:00 +13°C° 0.3 mm 8 mps 726 mmHg 71%
    05:00 +13°C° 0.5 mm 8 mps 727 mmHg 73%
    06:00 +12°C° 0.5 mm 7 mps 727 mmHg 75%
    07:00 +13°C° 0.5 mm 6 mps 728 mmHg 77%
    08:00 +13°C° 0.2 mm 6 mps 728 mmHg 76%
    09:00 +13°C° 0.2 mm 6 mps 728 mmHg 75%
    10:00 +13°C° 0.2 mm 5 mps 728 mmHg 74%
    11:00 +14°C° 0.1 mm 5 mps 727 mmHg 71%
    12:00 +14°C° 0.1 mm 5 mps 727 mmHg 68%
    13:00 +15°C° 0.1 mm 5 mps 726 mmHg 64%
    14:00 +14°C° 1 mm 5 mps 726 mmHg 67%
    15:00 +14°C° 1 mm 6 mps 726 mmHg 69%
    16:00 +13°C° 1 mm 6 mps 726 mmHg 72%
    17:00 +13°C° 1.3 mm 6 mps 726 mmHg 71%
    18:00 +13°C° 1.3 mm 6 mps 727 mmHg 70%
    19:00 +13°C° 1.3 mm 6 mps 727 mmHg 69%
    20:00 +12°C° 0.1 mm 5 mps 727 mmHg 67%
    21:00 +12°C° 0.1 mm 5 mps 727 mmHg 65%
    22:00 +12°C° 0.1 mm 4 mps 727 mmHg 63%
    23:00 +12°C° 0 mm 3 mps 727 mmHg 62%

    29 October, Monday

    Time Temperature Precipitation Wind Pressure Humidity
    00:00 +12°C° 0 mm 3 mps 726 mmHg 60%
    01:00 +13°C° 0 mm 2 mps 726 mmHg 59%
    02:00 +13°C° 0 mm 2 mps 726 mmHg 58%
    03:00 +13°C° 0 mm 2 mps 726 mmHg 57%
    04:00 +12°C° 0 mm 1 mps 726 mmHg 56%
    05:00 +12°C° 0 mm 1 mps 726 mmHg 55%
    06:00 +12°C° 0 mm 1 mps 726 mmHg 54%
    07:00 +12°C° 0 mm 2 mps 726 mmHg 52%
    08:00 +13°C° 0 mm 2 mps 726 mmHg 47%
    09:00 +13°C° 0 mm 3 mps 726 mmHg 43%
    10:00 +14°C° 0 mm 3 mps 726 mmHg 38%
    11:00 +16°C° 0 mm 3 mps 726 mmHg 36%
    12:00 +17°C° 0 mm 4 mps 725 mmHg 34%
    13:00 +18°C° 0 mm 4 mps 725 mmHg 32%
    14:00 +17°C° 0 mm 5 mps 725 mmHg 32%
    15:00 +17°C° 0 mm 5 mps 725 mmHg 31%
    16:00 +17°C° 0 mm 5 mps 725 mmHg 30%
    17:00 +17°C° 0 mm 4 mps 725 mmHg 31%
    18:00 +15°C° 0 mm 4 mps 726 mmHg 31%
    19:00 +14°C° 0 mm 3 mps 726 mmHg 32%
    20:00 +15°C° 0 mm 2 mps 726 mmHg 32%
    21:00 +14°C° 0 mm 2 mps 726 mmHg 33%
    22:00 +14°C° 0 mm 2 mps 726 mmHg 33%
    23:00 +14°C° 0 mm 2 mps 726 mmHg 34%
    Show more